KC3BHK-2 Weather Reports


time (UTC)temp
C
wind
direction
speed
KPH
gust
KPH
rain 1hr
cm
rain 24hr
cm
rain mn
cm
humidity
%
barometer
mb
20260504060152 2 70 0.0 0.0 0.00 0.00 0.00
20260504050549 2 70 0.0 0.0 0.00 0.00 0.00
20260504045538 2 70 0.0 0.0 0.00 0.00 0.00
20260504045030 2 70 0.0 0.0 0.00 0.00 0.00
20260504044525 2 70 0.0 0.0 0.00 0.00 0.00
20260504044020 2 70 0.0 0.0 0.00 0.00 0.00
20260504043515 2 70 0.0 0.0 0.00 0.00 0.00
20260504043009 2 70 0.0 0.0 0.00 0.00 0.00
20260504042504 2 70 0.0 0.0 0.00 0.00 0.00
20260504041956 2 70 0.0 3.2 0.00 0.00 0.00
20260504041451 2 70 0.0 0.0 0.00 0.00 0.00
20260504040441 2 104 0.0 0.0 0.00 0.00 0.00
20260504035935 3 104 0.0 0.0 0.00 0.00 0.00
20260504035430 3 104 0.0 0.0 0.00 0.00 0.00
20260504034416 2 104 0.0 0.0 0.00 0.00 0.00
20260504033911 3 104 0.0 0.0 0.00 0.00 0.00
20260504033406 4 104 0.0 0.0 0.00 0.00 0.00
20260504032901 4 104 0.0 0.0 0.00 0.00 0.00
20260504032356 4 104 0.0 0.0 0.00 0.00 0.00
20260504031848 4 104 0.0 0.0 0.00 0.00 0.00
20260504031342 5 104 0.0 3.2 0.00 0.00 0.00
20260504030837 3 104 1.6 3.2 0.00 0.00 0.00
20260504030332 5 219 0.0 0.0 0.00 0.00 0.00
20260504025827 5 219 0.0 0.0 0.00 0.00 0.00
20260504025322 4 219 0.0 0.0 0.00 0.00 0.00
20260504024814 5 219 0.0 0.0 0.00 0.00 0.00
20260504024309 4 219 0.0 0.0 0.00 0.00 0.00
20260504023804 5 219 0.0 0.0 0.00 0.00 0.00
20260504022754 4 219 0.0 0.0 0.00 0.00 0.00
20260504022249 4 219 0.0 0.0 0.00 0.00 0.00
20260504021741 5 219 0.0 0.0 0.00 0.00 0.00
20260504021237 5 219 0.0 0.0 0.00 0.00 0.00
20260504020732 5 219 0.0 0.0 0.00 0.00 0.00
20260504020227 6 219 0.0 0.0 0.00 0.00 0.00
20260504015722 5 219 0.0 0.0 0.00 0.00 0.00
20260504015217 6 219 0.0 0.0 0.00 0.00 0.00
20260504014709 6 219 0.0 0.0 0.00 0.00 0.00
20260504014204 6 219 0.0 0.0 0.00 0.00 0.00
20260504013659 6 219 0.0 0.0 0.00 0.00 0.00
20260504013154 6 219 0.0 0.0 0.00 0.00 0.00
20260504012144 7 219 0.0 0.0 0.00 0.00 0.00
20260504011131 7 219 0.0 0.0 0.00 0.00 0.00
20260504010626 8 219 0.0 0.0 0.00 0.00 0.00
20260504010121 8 219 0.0 0.0 0.00 0.00 0.00
20260504005616 7 219 0.0 0.0 0.00 0.00 0.00
20260504005111 8 219 0.0 0.0 0.00 0.00 0.00
20260504004603 8 219 0.0 0.0 0.00 0.00 0.00
20260504004058 9 219 0.0 0.0 0.00 0.00 0.00
20260504003553 9 219 0.0 0.0 0.00 0.00 0.00
20260504003048 9 219 0.0 0.0 0.00 0.00 0.00
20260504002543 10 219 0.0 0.0 0.00 0.00 0.00
20260504002039 10 219 0.0 0.0 0.00 0.00 0.00
20260504001531 11 219 0.0 0.0 0.00 0.00 0.00
20260504001026 11 219 0.0 0.0 0.00 0.00 0.00
20260504000521 11 219 0.0 0.0 0.00 0.00 0.00
20260504000016 12 219 0.0 0.0 0.00 0.00 0.00
20260503235512 13 219 0.0 0.0 0.00 0.00 0.00
20260503235007 13 219 0.0 4.8 0.00 0.00 0.00
20260503233954 14 266 6.4 8.0 0.00 0.00 0.00
20260503233449 15 280 3.2 11.3 0.00 0.00 0.00
20260503232945 15 266 4.8 12.9 0.00 0.00 0.00
20260503232440 16 263 3.2 14.5 0.00 0.00 0.00
20260503231935 16 285 6.4 16.1 0.00 0.00 0.00
20260503231428 16 291 12.9 16.1 0.00 0.00 0.00
20260503230923 16 269 6.4 16.1 0.00 0.00 0.00
20260503230418 16 277 12.9 24.1 0.00 0.00 0.00
20260503225914 16 287 11.3 17.7 0.00 0.00 0.00
20260503225409 17 259 12.9 17.7 0.00 0.00 0.00
20260503224903 17 302 9.7 19.3 0.00 0.00 0.00
20260503224356 18 291 9.7 14.5 0.00 0.00 0.00
20260503223851 17 266 8.0 16.1 0.00 0.00 0.00
20260503223346 17 250 8.0 20.9 0.00 0.00 0.00
20260503222841 17 290 4.8 16.1 0.00 0.00 0.00
20260503222336 18 253 11.3 20.9 0.00 0.00 0.00
20260503221832 19 294 8.0 9.7 0.00 0.00 0.00
20260503221324 18 309 8.0 19.3 0.00 0.00 0.00
20260503220820 18 274 3.2 12.9 0.00 0.00 0.00
20260503220316 19 266 8.0 16.1 0.00 0.00 0.00
20260503215811 18 294 9.7 29.0 0.00 0.00 0.00
20260503215306 18 308 4.8 24.1 0.00 0.00 0.00
20260503214254 18 274 4.8 16.1 0.00 0.00 0.00
20260503213749 17 252 12.9 22.5 0.00 0.00 0.00
20260503213245 18 257 19.3 24.1 0.00 0.00 0.00
20260503212740 19 264 3.2 19.3 0.00 0.00 0.00
20260503212236 18 274 19.3 30.6 0.00 0.00 0.00
20260503211731 18 236 29.0 25.7 0.00 0.00 0.00
20260503211224 18 273 22.5 24.1 0.00 0.00 0.00
20260503210719 19 248 8.0 16.1 0.00 0.00 0.00
20260503210215 18 280 12.9 22.5 0.00 0.00 0.00
20260503205710 20 267 17.7 16.1 0.00 0.00 0.00
20260503205206 19 11 1.6 19.3 0.00 0.00 0.00
20260503204701 19 269 19.3 22.5 0.00 0.00 0.00
20260503204154 18 312 6.4 20.9 0.00 0.00 0.00
20260503203649 18 276 11.3 25.7 0.00 0.00 0.00
20260503203144 18 281 20.9 29.0 0.00 0.00 0.00
20260503202135 20 260 12.9 20.9 0.00 0.00 0.00
20260503201631 20 314 4.8 14.5 0.00 0.00 0.00
20260503201123 19 308 11.3 19.3 0.00 0.00 0.00
20260503200619 17 255 16.1 17.7 0.00 0.00 0.00
20260503200114 18 277 11.3 29.0 0.00 0.00 0.00
20260503195610 18 264 16.1 20.9 0.00 0.00 0.00
20260503195105 18 233 17.7 16.1 0.00 0.00 0.00
20260503194601 19 215 3.2 24.1 0.00 0.00 0.00
20260503194053 20 288 3.2 20.9 0.00 0.00 0.00
20260503193548 18 323 8.0 33.8 0.00 0.00 0.00
20260503193044 16 283 12.9 29.0 0.00 0.00 0.00
20260503192539 17 249 19.3 32.2 0.00 0.00 0.00
20260503192034 18 284 14.5 32.2 0.00 0.00 0.00
20260503191530 18 357 1.6 30.6 0.00 0.00 0.00
20260503191022 18 245 9.7 24.1 0.00 0.00 0.00
20260503190518 19 297 12.9 32.2 0.00 0.00 0.00
20260503190013 17 300 11.3 19.3 0.00 0.00 0.00
20260503185508 18 287 9.7 17.7 0.00 0.00 0.00
20260503185004 20 253 12.9 19.3 0.00 0.00 0.00
20260503183952 18 345 19.3 27.4 0.00 0.00 0.00
20260503183447 16 285 17.7 37.0 0.00 0.00 0.00
20260503182942 16 300 6.4 40.2 0.00 0.00 0.00
20260503182438 18 287 16.1 20.9 0.00 0.00 0.00
20260503181933 17 297 8.0 32.2 0.00 0.00 0.00
20260503181429 16 266 17.7 25.7 0.00 0.00 0.00
20260503180921 16 318 8.0 33.8 0.00 0.00 0.00
20260503180416 15 298 19.3 41.8 0.00 0.00 0.00
20260503175911 15 264 20.9 29.0 0.00 0.00 0.00
20260503175407 15 197 17.7 33.8 0.00 0.00 0.00
20260503174902 16 280 20.9 25.7 0.00 0.00 0.00
20260503174357 15 283 9.7 20.9 0.00 0.00 0.00
20260503173850 16 226 12.9 24.1 0.00 0.00 0.00
20260503173345 15 284 12.9 25.7 0.00 0.00 0.00
20260503172840 15 277 17.7 29.0 0.00 0.00 0.00
20260503172336 16 295 17.7 25.7 0.00 0.00 0.00
20260503171830 15 271 16.1 32.2 0.00 0.00 0.00
20260503171325 16 308 17.7 25.7 0.00 0.00 0.00
20260503170818 16 297 0.0 16.1 0.00 0.00 0.00
20260503170313 14 24 1.6 35.4 0.00 0.00 0.00
20260503160210 13 345 4.8 16.1 0.00 0.00 0.00
20260503150612 13 290 8.0 25.7 0.00 0.00 0.00
20260503150107 13 297 8.0 25.7 0.00 0.00 0.00
20260503131417 7 284 9.7 33.8 0.00 0.00 0.00
20260503130912 7 264 27.4 35.4 0.00 0.00 0.00
20260503130404 7 288 27.4 35.4 0.00 0.00 0.00
20260503110657 3 277 3.2 19.3 0.00 0.00 0.00
20260503110149 4 309 12.9 16.1 0.00 0.00 0.00
20260503090440 2 278 3.2 11.3 0.00 0.00 0.00
20260503081343 4 266 12.9 14.5 0.00 0.00 0.00
20260503080838 4 298 8.0 12.9 0.00 0.00 0.00
20260503080333 4 321 1.6 14.5 0.00 0.00 0.00
20260503072752 5 346 1.6 12.9 0.00 0.00 0.00
20260503072246 5 288 6.4 14.5 0.00 0.00 0.00
20260503071741 5 308 3.2 9.7 0.00 0.00 0.00
20260503071236 5 294 3.2 9.7 0.00 0.00 0.00
20260503070226 5 302 6.4 9.7 0.00 0.00 0.00